IGO437 VABB-VOCI

Flight info

Callsign IGO437
Flight time N/A
Altitude 37000
Route VEVAK2AXMABTA/27 MABTA W15 CIA
Aircraft A320/M-SDE3FGHIRWY/LB1

Departure

Time N/A
Airport Chhatrapati Shivaji Maharaj International Airport (VABB)

Arrival

Time 2026-05-04 12:58
Airport Cochin International Airport (VOCI)
Time Latitude Longitude Altitude Speed Heading
2026-05-04 12:37 11.50738 75.73803 36634 ft 447 kts 152°
2026-05-04 12:37 11.48090 75.75357 36199 ft 444 kts 152°
2026-05-04 12:37 11.45376 75.76948 35638 ft 445 kts 152°
2026-05-04 12:38 11.42720 75.78502 35022 ft 447 kts 152°
2026-05-04 12:38 11.39973 75.80112 34364 ft 451 kts 152°
2026-05-04 12:38 11.37280 75.81690 33806 ft 452 kts 152°
2026-05-04 12:38 11.34557 75.83284 33281 ft 450 kts 152°
2026-05-04 12:39 11.31851 75.84866 32810 ft 447 kts 152°
2026-05-04 12:39 11.29162 75.86438 32364 ft 444 kts 152°
2026-05-04 12:39 11.26494 75.87999 31917 ft 440 kts 152°
2026-05-04 12:39 11.23852 75.89548 31472 ft 437 kts 152°
2026-05-04 12:40 11.21225 75.91088 31036 ft 433 kts 151°
2026-05-04 12:40 11.18794 75.92879 30614 ft 432 kts 140°
2026-05-04 12:40 11.16534 75.94879 30036 ft 432 kts 140°
2026-05-04 12:40 11.14267 75.96900 29403 ft 433 kts 140°
2026-05-04 12:41 11.12006 75.98925 28812 ft 432 kts 140°
2026-05-04 12:41 11.09761 76.00943 28260 ft 430 kts 140°
2026-05-04 12:41 11.07521 76.02956 27714 ft 428 kts 140°
2026-05-04 12:41 11.05294 76.04954 27175 ft 426 kts 140°
2026-05-04 12:42 11.03074 76.06942 26645 ft 424 kts 140°
2026-05-04 12:42 11.00861 76.08923 26121 ft 423 kts 140°
2026-05-04 12:42 10.98657 76.10895 25616 ft 421 kts 140°
2026-05-04 12:42 10.96464 76.12855 25116 ft 419 kts 140°
2026-05-04 12:43 10.94269 76.14815 24627 ft 418 kts 140°
2026-05-04 12:43 10.92094 76.16758 24138 ft 416 kts 140°
2026-05-04 12:43 10.89947 76.18676 23676 ft 415 kts 140°
2026-05-04 12:43 10.87780 76.20612 23166 ft 414 kts 140°
2026-05-04 12:44 10.85620 76.22543 22595 ft 412 kts 140°
2026-05-04 12:44 10.83467 76.24469 22041 ft 411 kts 140°
2026-05-04 12:44 10.81319 76.26391 21494 ft 410 kts 140°
2026-05-04 12:44 10.79177 76.28302 20958 ft 409 kts 140°
2026-05-04 12:45 10.77046 76.30199 20436 ft 404 kts 140°
2026-05-04 12:45 10.74968 76.32048 19916 ft 389 kts 140°
2026-05-04 12:45 10.72971 76.33826 19414 ft 376 kts 139°
2026-05-04 12:45 10.71033 76.35554 18913 ft 364 kts 139°
2026-05-04 12:46 10.69784 76.36667 18590 ft 357 kts 139°
2026-05-04 12:46 10.67328 76.38855 17915 ft 345 kts 139°
2026-05-04 12:46 10.65541 76.40448 17355 ft 338 kts 139°
2026-05-04 12:46 10.64378 76.41484 16991 ft 334 kts 139°
2026-05-04 12:47 10.62071 76.43537 16270 ft 327 kts 138°
2026-05-04 12:47 10.60945 76.44541 15911 ft 323 kts 138°
2026-05-04 12:47 10.59210 76.45969 15391 ft 319 kts 147°
2026-05-04 12:47 10.57215 76.46931 14869 ft 316 kts 162°
2026-05-04 12:48 10.55069 76.47368 14364 ft 314 kts 171°
2026-05-04 12:48 10.52916 76.47699 13868 ft 312 kts 171°
2026-05-04 12:48 10.50780 76.48033 13333 ft 310 kts 170°
2026-05-04 12:48 10.48658 76.48368 12779 ft 307 kts 170°
2026-05-04 12:49 10.46554 76.48701 12224 ft 305 kts 170°
2026-05-04 12:49 10.44605 76.49008 11727 ft 302 kts 170°
2026-05-04 12:49 10.42662 76.49312 11227 ft 300 kts 170°
2026-05-04 12:49 10.40604 76.49635 10714 ft 299 kts 170°
2026-05-04 12:50 10.38555 76.49967 10198 ft 297 kts 168°
2026-05-04 12:50 10.36538 76.50394 9696 ft 294 kts 166°
2026-05-04 12:50 10.34559 76.50881 9179 ft 291 kts 165°
2026-05-04 12:50 10.32609 76.51384 8680 ft 287 kts 165°
2026-05-04 12:51 10.30712 76.51872 8192 ft 283 kts 165°
2026-05-04 12:51 10.28809 76.52353 7717 ft 280 kts 165°
2026-05-04 12:51 10.26973 76.52945 7243 ft 275 kts 150°
2026-05-04 12:51 10.25571 76.54205 6778 ft 269 kts 122°
2026-05-04 12:52 10.24871 76.55936 6318 ft 265 kts 104°
2026-05-04 12:52 10.24479 76.57756 5836 ft 263 kts 99°
2026-05-04 12:52 10.24011 76.59528 5352 ft 260 kts 118°
2026-05-04 12:52 10.22841 76.60883 4872 ft 256 kts 149°
2026-05-04 12:53 10.21217 76.61496 4528 ft 245 kts 174°
2026-05-04 12:53 10.19541 76.61464 4285 ft 241 kts 194°
2026-05-04 12:53 10.17998 76.60859 3995 ft 237 kts 213°
2026-05-04 12:53 10.16761 76.59770 3640 ft 237 kts 232°
2026-05-04 12:54 10.15962 76.58298 3147 ft 238 kts 253°
2026-05-04 12:54 10.15713 76.56676 2830 ft 229 kts 268°
2026-05-04 12:54 10.15658 76.55093 2534 ft 220 kts 268°
2026-05-04 12:54 10.15603 76.53565 2255 ft 213 kts 268°
2026-05-04 12:55 10.15549 76.52082 1978 ft 205 kts 268°
2026-05-04 12:55 10.15499 76.50674 1739 ft 194 kts 268°
2026-05-04 12:55 10.15450 76.49341 1482 ft 186 kts 268°
2026-05-04 12:55 10.15404 76.48067 1259 ft 174 kts 267°
2026-05-04 12:56 10.15361 76.46882 1047 ft 162 kts 267°
2026-05-04 12:56 10.15320 76.45761 826 ft 156 kts 268°
2026-05-04 12:56 10.15283 76.44679 644 ft 151 kts 269°
2026-05-04 12:56 10.15246 76.43617 467 ft 150 kts 270°
2026-05-04 12:57 10.15201 76.42582 263 ft 142 kts 270°
2026-05-04 12:57 10.15169 76.41583 89 ft 141 kts 271°
2026-05-04 12:57 10.15136 76.40653 40 ft 120 kts 269°
2026-05-04 12:57 10.15111 76.39971 38 ft 74 kts 272°
2026-05-04 12:58 10.15097 76.39629 39 ft 25 kts 266°
2026-05-04 12:58 10.15091 76.39449 38 ft 26 kts 267°
2026-05-04 12:58 10.15085 76.39270 39 ft 25 kts 267°
2026-05-04 12:58 10.15101 76.39160 39 ft 14 kts 321°
2026-05-04 12:59 10.15208 76.39152 38 ft 17 kts 358°
2026-05-04 12:59 10.15259 76.39070 39 ft 14 kts 301°
2026-05-04 12:59 10.15346 76.39074 39 ft 12 kts 69°
2026-05-04 12:59 10.15354 76.39177 39 ft 17 kts 89°
2026-05-04 13:00 10.15358 76.39300 39 ft 18 kts 87°
2026-05-04 13:00 10.15359 76.39434 39 ft 20 kts 89°
2026-05-04 13:00 10.15383 76.39554 39 ft 14 kts 25°
2026-05-04 13:00 10.15444 76.39553 39 ft 2 kts 358°